Location: Béaulencourt
(50.0796°N, 2.8795°E)
Time: 22:52:11
(UTC+00:00)

Lacrosse 4 Rocket - Pass Details

Date: 20 January 2026
Orbit: 513 x 564 km, 68.0° (Epoch: 9 February)

Event Time Altitude Azimuth Distance (km) Brightness Sun altitude
Exits shadow 06:20:45 14° 254° (WSW) 1,534 3.1 -12.0°
Maximum altitude 06:23:40 32° 314° (NW) 907 1.9 -11.5°
Drops below altitude 10° 06:27:12 10° 19° (NNE) 1,750 3.9 -11.0°
Sets 06:29:32 0° 30° (NNE) 2,639 4.9 -10.6°
